TimeEST,TemperatureF,Dew PointF,Humidity,Sea Level PressureIn,VisibilityMPH,Wind Direction,Wind SpeedMPH,Gust SpeedMPH,PrecipitationIn,Events,Conditions,WindDirDegrees,DateUTC
12:03 AM,53.6,50.0,88,30.31,10.0,NNE,17.3,-,N/A,,Overcast,20,2012-11-18 05:03:00
12:56 AM,54.0,50.0,86,30.30,10.0,NNE,17.3,26.5,N/A,,Overcast,20,2012-11-18 05:56:00
1:56 AM,54.0,51.1,90,30.28,10.0,NNE,18.4,29.9,N/A,,Overcast,20,2012-11-18 06:56:00
2:56 AM,54.0,51.1,90,30.28,10.0,NNE,19.6,27.6,N/A,,Mostly Cloudy,30,2012-11-18 07:56:00
3:56 AM,54.0,51.1,90,30.27,10.0,NNE,18.4,28.8,N/A,,Overcast,20,2012-11-18 08:56:00
4:56 AM,55.0,52.0,89,30.27,9.0,NNE,20.7,28.8,N/A,,Overcast,20,2012-11-18 09:56:00
5:56 AM,55.0,53.1,93,30.27,9.0,NNE,19.6,28.8,0.00,,Overcast,20,2012-11-18 10:56:00
6:13 AM,55.4,53.6,94,30.28,9.0,NNE,19.6,32.2,N/A,,Overcast,20,2012-11-18 11:13:00
6:56 AM,55.9,53.1,90,30.28,6.0,NNE,21.9,29.9,0.00,Rain,Light Rain,30,2012-11-18 11:56:00
7:28 AM,55.4,53.6,94,30.28,7.0,NNE,16.1,31.1,0.00,,Overcast,30,2012-11-18 12:28:00
7:41 AM,57.2,53.6,88,30.27,8.0,NNE,20.7,34.5,0.00,,Overcast,30,2012-11-18 12:41:00
7:56 AM,57.0,53.1,87,30.28,8.0,NNE,21.9,34.5,0.00,,Overcast,30,2012-11-18 12:56:00
8:56 AM,57.9,53.1,84,30.27,8.0,NNE,16.1,33.4,0.00,,Overcast,30,2012-11-18 13:56:00
9:54 AM,57.2,53.6,88,30.28,2.5,NNE,20.7,34.5,0.03,Rain,Rain,30,2012-11-18 14:54:00
9:56 AM,55.9,54.0,93,30.28,3.0,NNE,18.4,34.5,0.03,Rain,Light Rain,30,2012-11-18 14:56:00
10:56 AM,57.0,54.0,89,30.27,4.0,NNE,24.2,38.0,0.00,Rain,Light Rain,20,2012-11-18 15:56:00
11:22 AM,55.4,53.6,94,30.27,8.0,NNE,20.7,39.1,0.00,Rain,Light Rain,30,2012-11-18 16:22:00
11:56 AM,57.0,54.0,89,30.25,7.0,NNE,19.6,39.1,0.01,,Overcast,30,2012-11-18 16:56:00
12:56 PM,57.0,54.0,89,30.23,9.0,NNE,24.2,35.7,0.00,,Overcast,30,2012-11-18 17:56:00
1:29 PM,55.4,55.4,100,30.21,1.8,NNE,21.9,31.1,0.02,Rain,Rain,20,2012-11-18 18:29:00
1:38 PM,55.4,55.4,100,30.22,3.0,NNE,19.6,32.2,0.02,Rain,Light Rain,30,2012-11-18 18:38:00
1:54 PM,55.4,55.4,100,30.22,2.5,NNE,16.1,28.8,0.02,Rain,Light Rain,30,2012-11-18 18:54:00
1:56 PM,55.9,55.0,97,30.22,2.5,NNE,18.4,28.8,0.03,Rain,Light Rain,20,2012-11-18 18:56:00
2:03 PM,55.4,55.4,100,30.22,1.8,NNE,17.3,26.5,0.00,Rain,Rain,30,2012-11-18 19:03:00
2:18 PM,55.4,55.4,100,30.22,2.5,NNE,20.7,27.6,0.01,Rain,Light Rain,20,2012-11-18 19:18:00
2:24 PM,55.4,55.4,100,30.22,4.0,NNE,23.0,33.4,0.01,Rain,Light Rain,20,2012-11-18 19:24:00
2:32 PM,55.4,55.4,100,30.22,6.0,NNE,23.0,32.2,0.01,Rain,Light Rain,20,2012-11-18 19:32:00
2:56 PM,55.9,55.0,97,30.21,6.0,NNE,20.7,33.4,0.01,Rain,Light Rain,20,2012-11-18 19:56:00
3:31 PM,55.4,55.4,100,30.20,9.0,NNE,21.9,34.5,0.00,,Overcast,20,2012-11-18 20:31:00
3:56 PM,55.9,54.0,93,30.20,8.0,NNE,21.9,33.4,0.00,,Overcast,20,2012-11-18 20:56:00
4:56 PM,55.9,54.0,93,30.21,9.0,NNE,17.3,27.6,0.01,,Overcast,30,2012-11-18 21:56:00
5:56 PM,55.0,54.0,96,30.21,7.0,NNE,18.4,29.9,0.04,Rain,Light Rain,20,2012-11-18 22:56:00
6:56 PM,55.0,54.0,96,30.20,5.0,NNE,23.0,31.1,0.12,Rain,Rain,20,2012-11-18 23:56:00
7:10 PM,55.4,53.6,94,30.20,6.0,NNE,20.7,33.4,0.01,Rain,Light Rain,20,2012-11-19 00:10:00
7:56 PM,55.0,55.0,100,30.20,7.0,North,20.7,29.9,0.06,Rain,Light Rain,10,2012-11-19 00:56:00
8:16 PM,55.4,53.6,94,30.20,7.0,North,19.6,28.8,0.01,Rain,Light Rain,10,2012-11-19 01:16:00
8:56 PM,55.0,54.0,96,30.19,8.0,NNE,25.3,33.4,0.04,Rain,Light Rain,20,2012-11-19 01:56:00
9:56 PM,55.0,55.0,100,30.19,5.0,NNE,20.7,27.6,0.03,Rain,Light Rain,20,2012-11-19 02:56:00
10:08 PM,55.4,55.4,100,30.18,4.0,NNE,20.7,29.9,0.00,Rain,Light Rain,20,2012-11-19 03:08:00
10:56 PM,55.0,54.0,96,30.17,8.0,NNE,23.0,33.4,0.00,,Overcast,20,2012-11-19 03:56:00
11:56 PM,55.0,55.0,100,30.17,8.0,NNE,21.9,29.9,0.01,,Overcast,20,2012-11-19 04:56:00